Terug naar catalogus

STARLINK-38015

ActiefCommunicatieSSO
NORAD 69726·PAYLOAD·🇺🇸 United States

Gelanceerd Jun 28, 2026 vanaf Vandenberg Space Force Base

Loading…

Volgende Passages (komende 24 uur)

TLE

VersSource: CelesTrak SupGP

Epoch: Sep 14, 2026, 23:34 UTC

1 69726C 26147Y   26257.98243056  .00053828  00000+0  36173-3 0  2574
2 69726  97.2837 297.4670 0001431  83.2062  63.4438 15.75155897    15

Volg STARLINK-38015 in realtime met AllMySat

Download on the App Store